Terug naar catalogus

STARLINK-4746

ActiefCommunicatieVLEO
NORAD 53846·PAYLOAD·🇺🇸 United States

Gelanceerd Sep 19, 2022 vanaf Cape Canaveral Space Force Station

Loading…

Volgende Passages (komende 24 uur)

TLE

VersSource: CelesTrak SupGP

Epoch: Sep 15, 2026, 02:27 UTC

1 53846C 22114AE  26258.10256944  .00346010  00000+0  20566-1 0  2581
2 53846  53.1594 162.9802 0001393  82.2923 124.6498 15.10609978    16

Volg STARLINK-4746 in realtime met AllMySat

Download on the App Store